Time,TemperatureF,DewpointF,PressureIn,WindDirection,WindDirectionDegrees,WindSpeedMPH,WindSpeedGustMPH,Humidity,HourlyPrecipIn,Conditions,Clouds,dailyrainin,SoftwareType,DateUTC
2013-01-27 00:01:00,29.7,22.8,29.68,NW,315,0.4,0.9,75,0.00,,SKC,0.00,VWS V14.01,2013-01-27 07:01:00,
2013-01-27 00:06:00,29.7,22.8,29.68,WNW,292,1.1,2.0,75,0.00,,SKC,0.00,VWS V14.01,2013-01-27 07:06:00,
2013-01-27 00:13:00,29.7,23.1,29.67,NW,315,1.3,2.5,76,0.00,,SKC,0.00,VWS V14.01,2013-01-27 07:13:00,
2013-01-27 00:18:00,29.7,23.1,29.67,NW,315,0.0,2.5,76,0.00,,SKC,0.00,VWS V14.01,2013-01-27 07:18:00,
2013-01-27 00:23:00,29.9,23.3,29.67,WNW,292,0.4,2.5,76,0.00,,SKC,0.00,VWS V14.01,2013-01-27 07:23:00,
2013-01-27 00:28:00,29.9,23.3,29.67,NW,315,0.9,5.6,76,0.00,,SKC,0.00,VWS V14.01,2013-01-27 07:28:00,
2013-01-27 00:33:00,30.1,23.1,29.67,WNW,292,0.9,1.3,75,0.00,,SKC,0.00,VWS V14.01,2013-01-27 07:33:00,
2013-01-27 00:38:00,30.2,22.9,29.67,WNW,292,0.2,1.3,74,0.00,,SKC,0.00,VWS V14.01,2013-01-27 07:38:00,
2013-01-27 00:44:00,29.9,23.0,29.67,WNW,292,0.2,1.3,75,0.00,,SKC,0.00,VWS V14.01,2013-01-27 07:44:00,
2013-01-27 00:49:00,29.7,22.8,29.66,NW,315,0.4,1.3,75,0.00,,SKC,0.00,VWS V14.01,2013-01-27 07:49:00,
2013-01-27 00:54:00,29.5,22.6,29.66,WNW,292,0.4,1.3,75,0.00,,SKC,0.00,VWS V14.01,2013-01-27 07:54:00,
2013-01-27 00:59:00,29.3,22.4,29.66,NW,315,0.0,1.3,75,0.00,,SKC,0.00,VWS V14.01,2013-01-27 07:59:00,
2013-01-27 01:04:00,29.2,22.3,29.66,NW,315,0.0,0.4,75,0.00,,SKC,0.00,VWS V14.01,2013-01-27 08:04:00,
2013-01-27 01:09:00,29.0,22.1,29.66,WNW,292,0.2,0.4,75,0.00,,SKC,0.00,VWS V14.01,2013-01-27 08:09:00,
2013-01-27 01:14:00,29.0,22.1,29.66,WNW,292,0.2,0.4,75,0.00,,SKC,0.00,VWS V14.01,2013-01-27 08:14:00,
2013-01-27 01:20:00,29.2,22.6,29.66,WNW,292,0.0,0.4,76,0.00,,SKC,0.00,VWS V14.01,2013-01-27 08:20:00,
2013-01-27 01:25:00,29.0,22.1,29.65,WNW,292,0.0,0.4,75,0.00,,SKC,0.00,VWS V14.01,2013-01-27 08:25:00,
2013-01-27 01:30:00,29.0,22.1,29.65,WNW,292,0.0,0.4,75,0.00,,SKC,0.00,VWS V14.01,2013-01-27 08:30:00,
2013-01-27 01:35:00,29.0,22.4,29.65,WNW,292,0.0,0.2,76,0.00,,SKC,0.00,VWS V14.01,2013-01-27 08:35:00,
2013-01-27 01:40:00,29.2,22.3,29.65,NW,315,0.0,0.2,75,0.00,,SKC,0.00,VWS V14.01,2013-01-27 08:40:00,
2013-01-27 01:45:00,29.3,22.4,29.65,NW,315,0.0,0.2,75,0.00,,SKC,0.00,VWS V14.01,2013-01-27 08:45:00,
2013-01-27 01:50:00,29.3,22.7,29.65,NW,315,0.0,0.2,76,0.00,,SKC,0.00,VWS V14.01,2013-01-27 08:50:00,
2013-01-27 01:55:00,29.3,22.7,29.65,NW,315,0.0,0.2,76,0.00,,SKC,0.00,VWS V14.01,2013-01-27 08:55:00,
2013-01-27 02:00:00,29.2,22.3,29.65,ENE,68,0.0,0.0,75,0.00,,SKC,0.00,VWS V14.01,2013-01-27 09:00:00,
2013-01-27 02:05:00,29.3,22.4,29.65,North,0,0.0,0.2,75,0.00,,SKC,0.00,VWS V14.01,2013-01-27 09:05:00,
2013-01-27 02:11:00,29.3,22.7,29.65,North,0,0.0,0.2,76,0.00,,SKC,0.00,VWS V14.01,2013-01-27 09:11:00,
2013-01-27 02:16:00,29.3,22.4,29.65,NNW,338,0.0,0.4,75,0.00,,SKC,0.00,VWS V14.01,2013-01-27 09:16:00,
2013-01-27 02:21:00,29.2,22.6,29.65,NNW,338,0.0,0.4,76,0.00,,SKC,0.00,VWS V14.01,2013-01-27 09:21:00,
2013-01-27 02:26:00,29.0,22.4,29.64,NNW,338,0.0,0.4,76,0.00,,SKC,0.00,VWS V14.01,2013-01-27 09:26:00,
2013-01-27 02:31:00,29.0,22.4,29.64,NNW,338,0.0,0.0,76,0.00,,SKC,0.00,VWS V14.01,2013-01-27 09:31:00,
2013-01-27 02:36:00,28.8,22.5,29.64,ENE,68,0.4,0.4,77,0.00,,SKC,0.00,VWS V14.01,2013-01-27 09:36:00,
2013-01-27 02:41:00,29.0,22.4,29.64,ENE,68,0.0,0.4,76,0.00,,SKC,0.00,VWS V14.01,2013-01-27 09:41:00,
2013-01-27 02:46:00,28.8,21.9,29.63,NNW,338,0.4,0.4,75,0.00,,SKC,0.00,VWS V14.01,2013-01-27 09:46:00,
2013-01-27 02:52:00,29.0,22.1,29.63,NW,315,1.1,1.1,75,0.00,,SKC,0.00,VWS V14.01,2013-01-27 09:52:00,
2013-01-27 02:57:00,29.2,22.3,29.63,WNW,292,0.9,1.6,75,0.00,,SKC,0.00,VWS V14.01,2013-01-27 09:57:00,
2013-01-27 03:02:00,29.2,22.3,29.63,WNW,292,0.2,1.1,75,0.00,,SKC,0.00,VWS V14.01,2013-01-27 10:02:00,
2013-01-27 03:07:00,29.2,22.6,29.63,NW,315,0.7,1.1,76,0.00,,SKC,0.00,VWS V14.01,2013-01-27 10:07:00,
2013-01-27 03:12:00,29.2,22.6,29.63,WNW,292,0.4,1.1,76,0.00,,SKC,0.00,VWS V14.01,2013-01-27 10:12:00,
2013-01-27 03:17:00,29.2,22.6,29.63,WNW,292,0.4,1.1,76,0.00,,SKC,0.00,VWS V14.01,2013-01-27 10:17:00,
2013-01-27 03:22:00,29.0,22.1,29.63,NW,315,0.4,1.1,75,0.00,,SKC,0.00,VWS V14.01,2013-01-27 10:22:00,
2013-01-27 03:27:00,29.0,22.1,29.62,NNW,338,0.4,1.8,75,0.00,,SKC,0.00,VWS V14.01,2013-01-27 10:27:00,
2013-01-27 03:32:00,29.0,22.1,29.62,NNW,338,0.4,0.9,75,0.00,,SKC,0.00,VWS V14.01,2013-01-27 10:32:00,
2013-01-27 03:38:00,29.2,22.3,29.62,WNW,292,1.8,1.8,75,0.00,,SKC,0.00,VWS V14.01,2013-01-27 10:38:00,
2013-01-27 03:43:00,29.7,22.4,29.62,NW,315,0.7,3.6,74,0.00,,SKC,0.00,VWS V14.01,2013-01-27 10:43:00,
2013-01-27 03:48:00,29.7,22.4,29.62,NW,315,0.4,3.6,74,0.00,,SKC,0.00,VWS V14.01,2013-01-27 10:48:00,
2013-01-27 03:53:00,29.7,22.4,29.62,NNW,338,0.9,3.6,74,0.00,,SKC,0.00,VWS V14.01,2013-01-27 10:53:00,
2013-01-27 03:58:00,29.9,22.6,29.62,NW,315,0.0,3.6,74,0.00,,SKC,0.00,VWS V14.01,2013-01-27 10:58:00,
2013-01-27 04:03:00,29.9,22.6,29.62,NW,315,2.5,3.8,74,0.00,,SKC,0.00,VWS V14.01,2013-01-27 11:03:00,
2013-01-27 04:08:00,30.2,22.6,29.62,NNW,338,1.8,3.8,73,0.00,,SKC,0.00,VWS V14.01,2013-01-27 11:08:00,
2013-01-27 04:13:00,30.8,23.2,29.61,NW,315,0.7,3.8,73,0.00,,SKC,0.00,VWS V14.01,2013-01-27 11:13:00,
2013-01-27 04:19:00,31.0,23.0,29.61,NW,315,1.1,3.8,72,0.00,,SKC,0.00,VWS V14.01,2013-01-27 11:19:00,
2013-01-27 04:24:00,31.0,22.7,29.61,NW,315,2.5,3.8,71,0.00,,SKC,0.00,VWS V14.01,2013-01-27 11:24:00,
2013-01-27 04:29:00,31.3,22.7,29.61,NW,315,2.5,3.8,70,0.00,,SKC,0.00,VWS V14.01,2013-01-27 11:29:00,
2013-01-27 04:34:00,31.3,22.7,29.61,NW,315,2.7,3.6,70,0.00,,SKC,0.00,VWS V14.01,2013-01-27 11:34:00,
2013-01-27 04:39:00,31.3,22.7,29.61,North,0,2.2,3.6,70,0.00,,SKC,0.00,VWS V14.01,2013-01-27 11:39:00,
2013-01-27 04:44:00,31.3,22.7,29.61,NW,315,0.4,3.6,70,0.00,,SKC,0.00,VWS V14.01,2013-01-27 11:44:00,
2013-01-27 04:49:00,31.3,22.7,29.61,NW,315,0.4,3.6,70,0.00,,SKC,0.00,VWS V14.01,2013-01-27 11:49:00,
2013-01-27 04:54:00,31.3,22.7,29.61,WNW,292,0.0,3.6,70,0.00,,SKC,0.00,VWS V14.01,2013-01-27 11:54:00,
2013-01-27 05:00:00,31.3,22.7,29.61,NW,315,0.2,3.6,70,0.00,,SKC,0.00,VWS V14.01,2013-01-27 12:00:00,
2013-01-27 05:05:00,31.3,22.7,29.60,WNW,292,0.2,0.9,70,0.00,,SKC,0.00,VWS V14.01,2013-01-27 12:05:00,
2013-01-27 05:10:00,31.3,23.0,29.60,NW,315,0.0,0.9,71,0.00,,SKC,0.00,VWS V14.01,2013-01-27 12:10:00,
2013-01-27 05:15:00,31.1,22.8,29.60,NW,315,0.0,0.9,71,0.00,,SKC,0.00,VWS V14.01,2013-01-27 12:15:00,
2013-01-27 05:20:00,31.1,22.8,29.60,WNW,292,0.2,0.9,71,0.00,,SKC,0.00,VWS V14.01,2013-01-27 12:20:00,
2013-01-27 05:25:00,31.1,22.8,29.60,NW,315,0.2,1.1,71,0.00,,SKC,0.00,VWS V14.01,2013-01-27 12:25:00,
2013-01-27 05:30:00,31.3,22.7,29.60,NNW,338,0.0,0.0,70,0.00,,SKC,0.00,VWS V14.01,2013-01-27 12:30:00,
2013-01-27 05:35:00,31.3,22.7,29.60,NNW,338,0.2,0.2,70,0.00,,SKC,0.00,VWS V14.01,2013-01-27 12:35:00,
2013-01-27 05:41:00,31.3,23.0,29.60,NW,315,1.1,1.1,71,0.00,,SKC,0.00,VWS V14.01,2013-01-27 12:41:00,
2013-01-27 05:46:00,31.3,22.7,29.60,NW,315,0.7,1.6,70,0.00,,SKC,0.00,VWS V14.01,2013-01-27 12:46:00,
2013-01-27 05:51:00,31.3,22.7,29.60,NW,315,0.4,1.6,70,0.00,,SKC,0.00,VWS V14.01,2013-01-27 12:51:00,
2013-01-27 05:56:00,31.5,22.9,29.60,NNW,338,2.7,2.7,70,0.00,,SKC,0.00,VWS V14.01,2013-01-27 12:56:00,
2013-01-27 06:01:00,31.7,23.0,29.60,NW,315,1.6,1.6,70,0.00,,SKC,0.00,VWS V14.01,2013-01-27 13:01:00,
2013-01-27 06:06:00,31.9,22.9,29.60,WNW,292,0.4,1.6,69,0.00,,SKC,0.00,VWS V14.01,2013-01-27 13:06:00,
2013-01-27 06:11:00,32.0,23.0,29.60,NW,315,3.4,3.4,69,0.00,,SKC,0.00,VWS V14.01,2013-01-27 13:11:00,
2013-01-27 06:16:00,32.2,23.2,29.60,NNW,338,2.0,3.4,69,0.00,,SKC,0.00,VWS V14.01,2013-01-27 13:16:00,
2013-01-27 06:22:00,32.2,23.2,29.60,NW,315,0.9,3.4,69,0.00,,SKC,0.00,VWS V14.01,2013-01-27 13:22:00,
2013-01-27 06:27:00,32.2,23.2,29.60,NNW,338,2.2,3.4,69,0.00,,SKC,0.00,VWS V14.01,2013-01-27 13:27:00,
2013-01-27 06:32:00,32.4,23.4,29.60,NW,315,1.8,1.8,69,0.00,,SKC,0.00,VWS V14.01,2013-01-27 13:32:00,
2013-01-27 06:37:00,32.4,23.4,29.60,WNW,292,1.3,1.8,69,0.00,,SKC,0.00,VWS V14.01,2013-01-27 13:37:00,
2013-01-27 06:42:00,32.6,23.6,29.59,NW,315,1.1,1.8,69,0.00,,SKC,0.00,VWS V14.01,2013-01-27 13:42:00,
2013-01-27 06:47:00,32.4,23.0,29.59,North,0,4.0,4.0,68,0.00,,SKC,0.00,VWS V14.01,2013-01-27 13:47:00,
2013-01-27 06:52:00,32.4,23.4,29.60,NNW,338,1.8,4.0,69,0.00,,SKC,0.00,VWS V14.01,2013-01-27 13:52:00,
2013-01-27 06:58:00,32.2,23.2,29.60,NNW,338,1.1,4.0,69,0.00,,SKC,0.00,VWS V14.01,2013-01-27 13:58:00,
2013-01-27 07:03:00,32.2,23.2,29.60,NW,315,0.4,0.4,69,0.00,,SKC,0.00,VWS V14.01,2013-01-27 14:03:00,
2013-01-27 07:08:00,32.2,23.5,29.60,NW,315,0.4,1.1,70,0.00,,SKC,0.00,VWS V14.01,2013-01-27 14:08:00,
2013-01-27 07:13:00,32.2,23.5,29.60,NW,315,0.4,1.1,70,0.00,,SKC,0.00,VWS V14.01,2013-01-27 14:13:00,
2013-01-27 07:18:00,32.2,23.5,29.60,NW,315,1.1,1.1,70,0.00,,SKC,0.00,VWS V14.01,2013-01-27 14:18:00,
2013-01-27 07:23:00,32.2,23.2,29.60,NW,315,0.7,1.1,69,0.00,,SKC,0.00,VWS V14.01,2013-01-27 14:23:00,
2013-01-27 07:28:00,32.4,23.7,29.60,WNW,292,1.6,1.6,70,0.00,,SKC,0.00,VWS V14.01,2013-01-27 14:28:00,
2013-01-27 07:34:00,32.8,23.8,29.60,WNW,292,0.7,0.7,69,0.00,,SKC,0.00,VWS V14.01,2013-01-27 14:34:00,
2013-01-27 07:39:00,32.9,24.2,29.60,NNW,338,0.7,1.3,70,0.00,,SKC,0.00,VWS V14.01,2013-01-27 14:39:00,
2013-01-27 07:44:00,33.3,24.6,29.60,NW,315,0.7,1.3,70,0.00,,SKC,0.00,VWS V14.01,2013-01-27 14:44:00,
2013-01-27 07:49:00,33.5,24.4,29.59,NW,315,0.2,1.3,69,0.00,,SKC,0.00,VWS V14.01,2013-01-27 14:49:00,
2013-01-27 07:54:00,33.8,25.1,29.59,NNW,338,0.7,1.3,70,0.00,,SKC,0.00,VWS V14.01,2013-01-27 14:54:00,
2013-01-27 07:59:00,34.2,25.1,29.59,NW,315,0.7,1.3,69,0.00,,SKC,0.00,VWS V14.01,2013-01-27 14:59:00,
2013-01-27 08:04:00,34.6,25.8,29.59,NNW,338,1.8,1.8,70,0.00,,SKC,0.00,VWS V14.01,2013-01-27 15:04:00,
2013-01-27 08:10:00,34.9,26.1,29.59,North,0,0.9,1.8,70,0.00,,SKC,0.00,VWS V14.01,2013-01-27 15:10:00,
2013-01-27 08:15:00,35.8,25.9,29.59,NNW,338,0.9,1.8,67,0.00,,SKC,0.00,VWS V14.01,2013-01-27 15:15:00,
2013-01-27 08:20:00,36.0,26.1,29.59,NNW,338,1.1,1.8,67,0.00,,SKC,0.00,VWS V14.01,2013-01-27 15:20:00,
2013-01-27 08:25:00,36.0,25.8,29.59,NW,315,2.5,2.5,66,0.00,,SKC,0.00,VWS V14.01,2013-01-27 15:25:00,
2013-01-27 08:30:00,36.4,26.1,29.59,NW,315,0.9,0.9,66,0.00,,SKC,0.00,VWS V14.01,2013-01-27 15:30:00,
2013-01-27 08:35:00,36.5,25.9,29.59,NW,315,0.4,1.3,65,0.00,,SKC,0.00,VWS V14.01,2013-01-27 15:35:00,
2013-01-27 08:40:00,36.9,26.2,29.60,NW,315,1.6,2.7,65,0.00,,SKC,0.00,VWS V14.01,2013-01-27 15:40:00,
2013-01-27 08:46:00,37.1,26.1,29.60,NW,315,1.1,2.7,64,0.00,,SKC,0.00,VWS V14.01,2013-01-27 15:46:00,
2013-01-27 08:51:00,37.1,26.1,29.59,NNW,338,1.8,2.9,64,0.00,,SKC,0.00,VWS V14.01,2013-01-27 15:51:00,
2013-01-27 08:56:00,37.1,26.1,29.59,NW,315,0.9,2.9,64,0.00,,SKC,0.00,VWS V14.01,2013-01-27 15:56:00,
2013-01-27 09:01:00,37.4,26.4,29.59,NNW,338,0.0,0.7,64,0.00,,SKC,0.00,VWS V14.01,2013-01-27 16:01:00,
2013-01-27 09:06:00,37.6,26.5,29.59,NW,315,1.1,1.3,64,0.00,,SKC,0.00,VWS V14.01,2013-01-27 16:06:00,
2013-01-27 09:11:00,38.2,26.7,29.59,WNW,292,1.1,1.8,63,0.00,,SKC,0.00,VWS V14.01,2013-01-27 16:11:00,
2013-01-27 09:16:00,38.5,27.0,29.59,NNW,338,1.8,2.2,63,0.00,,SKC,0.00,VWS V14.01,2013-01-27 16:16:00,
2013-01-27 09:21:00,38.9,27.4,29.59,NNW,338,0.9,2.2,63,0.00,,SKC,0.00,VWS V14.01,2013-01-27 16:21:00,
2013-01-27 09:27:00,39.2,27.7,29.59,NNW,338,0.4,2.2,63,0.00,,SKC,0.00,VWS V14.01,2013-01-27 16:27:00,
2013-01-27 09:32:00,39.4,27.9,29.59,NNW,338,0.7,0.7,63,0.00,,SKC,0.00,VWS V14.01,2013-01-27 16:32:00,
2013-01-27 09:37:00,40.0,28.0,29.59,NW,315,0.9,0.9,62,0.00,,SKC,0.00,VWS V14.01,2013-01-27 16:37:00,
2013-01-27 09:42:00,40.3,28.3,29.59,NW,315,1.1,1.1,62,0.00,,SKC,0.00,VWS V14.01,2013-01-27 16:42:00,
2013-01-27 09:47:00,41.0,28.2,29.59,NNW,338,0.7,1.1,60,0.00,,SKC,0.00,VWS V14.01,2013-01-27 16:47:00,
2013-01-27 09:52:00,41.2,28.4,29.60,NNW,338,0.0,1.1,60,0.00,,SKC,0.00,VWS V14.01,2013-01-27 16:52:00,
2013-01-27 09:57:00,41.8,29.0,29.59,NNW,338,0.0,1.1,60,0.00,,SKC,0.00,VWS V14.01,2013-01-27 16:57:00,
2013-01-27 10:02:00,42.5,28.8,29.59,NNW,338,0.0,0.0,58,0.00,,SKC,0.00,VWS V14.01,2013-01-27 17:02:00,
2013-01-27 10:08:00,43.6,30.2,29.59,NNW,338,0.0,0.0,59,0.00,,SKC,0.00,VWS V14.01,2013-01-27 17:08:00,
2013-01-27 10:13:00,44.1,29.9,29.59,NNW,338,0.0,0.4,57,0.00,,SKC,0.00,VWS V14.01,2013-01-27 17:13:00,
2013-01-27 10:18:00,44.6,29.5,29.59,NNW,338,0.0,0.4,55,0.00,,SKC,0.00,VWS V14.01,2013-01-27 17:18:00,
2013-01-27 10:23:00,45.0,30.3,29.59,North,0,0.0,0.4,56,0.00,,SKC,0.00,VWS V14.01,2013-01-27 17:23:00,
2013-01-27 10:28:00,45.7,30.5,29.59,North,0,0.0,0.4,55,0.00,,SKC,0.00,VWS V14.01,2013-01-27 17:28:00,
2013-01-27 10:33:00,47.2,32.8,29.59,East,90,0.0,0.4,57,0.00,,SKC,0.00,VWS V14.01,2013-01-27 17:33:00,
2013-01-27 10:38:00,48.1,32.7,29.59,East,90,0.4,0.7,55,0.00,,SKC,0.00,VWS V14.01,2013-01-27 17:38:00,
2013-01-27 10:43:00,48.4,32.5,29.59,East,90,0.4,1.1,54,0.00,,SKC,0.00,VWS V14.01,2013-01-27 17:43:00,
2013-01-27 10:49:00,48.6,32.3,29.59,East,90,0.0,1.1,53,0.00,,SKC,0.00,VWS V14.01,2013-01-27 17:49:00,
2013-01-27 10:54:00,48.8,32.0,29.59,East,90,0.0,1.1,52,0.00,,SKC,0.00,VWS V14.01,2013-01-27 17:54:00,
2013-01-27 10:59:00,48.4,31.1,29.59,NNW,338,0.0,1.1,51,0.00,,SKC,0.00,VWS V14.01,2013-01-27 17:59:00,
2013-01-27 11:04:00,49.1,31.3,29.59,NW,315,0.4,1.8,50,0.00,,SKC,0.00,VWS V14.01,2013-01-27 18:04:00,
2013-01-27 11:09:00,49.9,32.0,29.59,ENE,68,0.4,2.2,50,0.00,,SKC,0.00,VWS V14.01,2013-01-27 18:09:00,
2013-01-27 11:14:00,50.4,32.5,29.58,NE,45,2.2,2.2,50,0.00,,SKC,0.00,VWS V14.01,2013-01-27 18:14:00,
2013-01-27 11:19:00,51.1,32.6,29.58,NE,45,0.4,2.2,49,0.00,,SKC,0.00,VWS V14.01,2013-01-27 18:19:00,
2013-01-27 11:24:00,51.8,33.3,29.58,ENE,68,0.7,2.2,49,0.00,,SKC,0.00,VWS V14.01,2013-01-27 18:24:00,
2013-01-27 11:30:00,52.7,33.6,29.58,NE,45,3.4,3.4,48,0.00,,SKC,0.00,VWS V14.01,2013-01-27 18:30:00,
2013-01-27 11:35:00,52.9,32.7,29.58,NE,45,4.3,4.3,46,0.00,,SKC,0.00,VWS V14.01,2013-01-27 18:35:00,
2013-01-27 11:40:00,52.6,31.9,29.58,ENE,68,3.8,7.2,45,0.00,,SKC,0.00,VWS V14.01,2013-01-27 18:40:00,
2013-01-27 11:45:00,52.4,31.7,29.58,ENE,68,5.1,7.2,45,0.00,,SKC,0.00,VWS V14.01,2013-01-27 18:45:00,
2013-01-27 11:50:00,52.7,32.5,29.57,ENE,68,2.7,7.2,46,0.00,,SKC,0.00,VWS V14.01,2013-01-27 18:50:00,
2013-01-27 11:55:00,53.1,32.3,29.57,NE,45,3.8,7.2,45,0.00,,SKC,0.00,VWS V14.01,2013-01-27 18:55:00,
2013-01-27 12:00:00,53.1,31.2,29.57,ENE,68,1.8,1.8,43,0.00,,SKC,0.00,VWS V14.01,2013-01-27 19:00:00,
2013-01-27 12:05:00,53.1,32.3,29.57,NNE,22,4.3,4.3,45,0.00,,SKC,0.00,VWS V14.01,2013-01-27 19:05:00,
2013-01-27 12:11:00,52.9,31.6,29.57,ENE,68,4.0,4.3,44,0.00,,SKC,0.00,VWS V14.01,2013-01-27 19:11:00,
2013-01-27 12:16:00,52.0,30.2,29.57,East,90,1.8,6.5,43,0.00,,SKC,0.00,VWS V14.01,2013-01-27 19:16:00,
2013-01-27 12:21:00,51.5,30.3,29.57,East,90,5.4,8.3,44,0.00,,SKC,0.00,VWS V14.01,2013-01-27 19:21:00,
2013-01-27 12:26:00,51.7,30.5,29.57,East,90,4.9,8.3,44,0.00,,SKC,0.00,VWS V14.01,2013-01-27 19:26:00,
2013-01-27 12:31:00,51.7,31.1,29.57,East,90,3.8,5.1,45,0.00,,SKC,0.00,VWS V14.01,2013-01-27 19:31:00,
2013-01-27 12:36:00,51.3,30.7,29.57,ENE,68,3.4,5.1,45,0.00,,SKC,0.00,VWS V14.01,2013-01-27 19:36:00,
2013-01-27 12:41:00,51.5,30.9,29.57,NNE,22,2.9,6.3,45,0.00,,SKC,0.00,VWS V14.01,2013-01-27 19:41:00,
2013-01-27 12:46:00,51.7,30.5,29.57,ENE,68,5.4,6.9,44,0.00,,SKC,0.00,VWS V14.01,2013-01-27 19:46:00,
2013-01-27 12:52:00,50.8,30.2,29.57,East,90,6.7,6.9,45,0.00,,SKC,0.00,VWS V14.01,2013-01-27 19:52:00,
2013-01-27 12:57:00,49.9,30.0,29.57,East,90,3.4,7.8,46,0.00,,SKC,0.00,VWS V14.01,2013-01-27 19:57:00,
2013-01-27 13:02:00,49.3,29.9,29.57,NE,45,3.6,4.0,47,0.00,,SKC,0.00,VWS V14.01,2013-01-27 20:02:00,
2013-01-27 13:07:00,49.5,30.1,29.56,ENE,68,3.4,6.3,47,0.00,,SKC,0.00,VWS V14.01,2013-01-27 20:07:00,
2013-01-27 13:12:00,50.0,30.6,29.57,NE,45,3.4,6.3,47,0.00,,SKC,0.00,VWS V14.01,2013-01-27 20:12:00,
2013-01-27 13:17:00,50.0,29.5,29.57,East,90,3.1,6.3,45,0.00,,SKC,0.00,VWS V14.01,2013-01-27 20:17:00,
2013-01-27 13:22:00,49.3,29.9,29.57,East,90,5.1,6.3,47,0.00,,SKC,0.00,VWS V14.01,2013-01-27 20:22:00,
2013-01-27 13:28:00,48.1,28.8,29.57,East,90,3.8,6.3,47,0.00,,SKC,0.00,VWS V14.01,2013-01-27 20:28:00,
2013-01-27 13:33:00,48.2,29.5,29.57,East,90,2.5,3.6,48,0.00,,SKC,0.00,VWS V14.01,2013-01-27 20:33:00,
2013-01-27 13:38:00,47.9,29.2,29.57,East,90,1.1,4.3,48,0.00,,SKC,0.00,VWS V14.01,2013-01-27 20:38:00,
2013-01-27 13:43:00,47.9,29.2,29.57,East,90,3.1,4.3,48,0.00,,SKC,0.00,VWS V14.01,2013-01-27 20:43:00,
2013-01-27 13:48:00,48.1,28.8,29.57,East,90,1.3,4.3,47,0.00,,SKC,0.00,VWS V14.01,2013-01-27 20:48:00,
2013-01-27 13:53:00,48.6,29.3,29.57,East,90,3.1,5.4,47,0.00,,SKC,0.00,VWS V14.01,2013-01-27 20:53:00,
2013-01-27 13:58:00,48.6,29.8,29.57,ENE,68,1.8,5.4,48,0.00,,SKC,0.00,VWS V14.01,2013-01-27 20:58:00,
2013-01-27 14:03:00,48.6,29.3,29.57,East,90,1.8,3.4,47,0.00,,SKC,0.00,VWS V14.01,2013-01-27 21:03:00,
2013-01-27 14:09:00,48.8,29.0,29.57,East,90,3.4,3.8,46,0.00,,SKC,0.00,VWS V14.01,2013-01-27 21:09:00,
2013-01-27 14:14:00,48.2,28.9,29.57,East,90,4.7,5.6,47,0.00,,SKC,0.00,VWS V14.01,2013-01-27 21:14:00,
2013-01-27 14:19:00,47.3,28.6,29.57,East,90,3.4,5.6,48,0.00,,SKC,0.00,VWS V14.01,2013-01-27 21:19:00,
2013-01-27 14:24:00,47.3,29.1,29.57,ENE,68,2.9,6.3,49,0.00,,SKC,0.00,VWS V14.01,2013-01-27 21:24:00,
2013-01-27 14:29:00,47.2,29.0,29.57,East,90,3.4,6.7,49,0.00,,SKC,0.00,VWS V14.01,2013-01-27 21:29:00,
2013-01-27 14:34:00,47.2,29.0,29.57,ENE,68,4.5,4.9,49,0.00,,SKC,0.00,VWS V14.01,2013-01-27 21:34:00,
2013-01-27 14:39:00,47.2,29.0,29.58,East,90,5.4,5.4,49,0.00,,SKC,0.00,VWS V14.01,2013-01-27 21:39:00,
2013-01-27 14:44:00,46.8,29.2,29.57,East,90,2.0,5.4,50,0.00,,SKC,0.00,VWS V14.01,2013-01-27 21:44:00,
2013-01-27 14:50:00,46.6,29.9,29.57,East,90,1.3,5.4,52,0.00,,SKC,0.00,VWS V14.01,2013-01-27 21:50:00,
2013-01-27 14:55:00,46.6,29.5,29.57,ENE,68,1.6,5.4,51,0.00,,SKC,0.00,VWS V14.01,2013-01-27 21:55:00,
2013-01-27 15:00:00,46.6,29.9,29.57,East,90,2.9,2.9,52,0.00,,SKC,0.00,VWS V14.01,2013-01-27 22:00:00,
2013-01-27 15:05:00,46.3,30.1,29.57,East,90,2.5,4.7,53,0.00,,SKC,0.00,VWS V14.01,2013-01-27 22:05:00,
2013-01-27 15:10:00,46.1,29.9,29.58,East,90,2.2,4.7,53,0.00,,SKC,0.00,VWS V14.01,2013-01-27 22:10:00,
2013-01-27 15:15:00,45.9,30.2,29.58,ENE,68,1.3,4.7,54,0.00,,SKC,0.00,VWS V14.01,2013-01-27 22:15:00,
2013-01-27 15:20:00,45.7,30.0,29.58,East,90,3.1,4.7,54,0.00,,SKC,0.00,VWS V14.01,2013-01-27 22:20:00,
2013-01-27 15:26:00,45.0,29.8,29.58,ENE,68,1.3,4.7,55,0.00,,SKC,0.00,VWS V14.01,2013-01-27 22:26:00,
2013-01-27 15:31:00,44.3,29.2,29.58,NE,45,1.1,2.7,55,0.00,,SKC,0.00,VWS V14.01,2013-01-27 22:31:00,
2013-01-27 15:36:00,43.9,28.8,29.58,East,90,1.6,2.7,55,0.00,,SKC,0.00,VWS V14.01,2013-01-27 22:36:00,
2013-01-27 15:41:00,43.7,29.0,29.58,East,90,1.3,2.7,56,0.00,,SKC,0.00,VWS V14.01,2013-01-27 22:41:00,
2013-01-27 15:46:00,43.7,29.0,29.58,East,90,1.1,2.7,56,0.00,,SKC,0.00,VWS V14.01,2013-01-27 22:46:00,
2013-01-27 15:51:00,43.6,29.0,29.59,NE,45,2.7,2.9,56,0.00,,SKC,0.00,VWS V14.01,2013-01-27 22:51:00,
2013-01-27 15:56:00,43.2,29.0,29.59,East,90,1.1,2.9,57,0.00,,SKC,0.00,VWS V14.01,2013-01-27 22:56:00,
2013-01-27 16:02:00,42.7,28.5,29.59,East,90,0.7,1.3,57,0.00,,SKC,0.00,VWS V14.01,2013-01-27 23:02:00,
2013-01-27 16:07:00,42.1,28.4,29.59,East,90,0.0,1.3,58,0.00,,SKC,0.00,VWS V14.01,2013-01-27 23:07:00,
2013-01-27 16:12:00,41.4,28.2,29.59,East,90,0.0,1.3,59,0.00,,SKC,0.00,VWS V14.01,2013-01-27 23:12:00,
2013-01-27 16:17:00,40.5,27.7,29.60,NNW,338,0.0,1.3,60,0.00,,SKC,0.00,VWS V14.01,2013-01-27 23:17:00,
2013-01-27 16:22:00,40.0,27.2,29.60,North,0,0.0,1.3,60,0.00,,SKC,0.00,VWS V14.01,2013-01-27 23:22:00,
2013-01-27 16:27:00,39.6,27.7,29.59,ENE,68,0.0,1.3,62,0.00,,SKC,0.00,VWS V14.01,2013-01-27 23:27:00,
2013-01-27 16:32:00,39.1,27.6,29.59,NNW,338,0.4,0.4,63,0.00,,SKC,0.00,VWS V14.01,2013-01-27 23:32:00,
2013-01-27 16:38:00,38.2,26.7,29.59,NNW,338,0.4,1.1,63,0.00,,SKC,0.00,VWS V14.01,2013-01-27 23:38:00,
2013-01-27 16:43:00,37.6,26.9,29.60,NNW,338,0.7,1.1,65,0.00,,SKC,0.00,VWS V14.01,2013-01-27 23:43:00,
2013-01-27 16:48:00,37.1,26.4,29.60,NNW,338,0.0,1.1,65,0.00,,SKC,0.00,VWS V14.01,2013-01-27 23:48:00,
2013-01-27 16:53:00,36.7,27.1,29.60,East,90,0.2,1.1,68,0.00,,SKC,0.00,VWS V14.01,2013-01-27 23:53:00,
2013-01-27 16:58:00,36.2,26.3,29.60,NNW,338,0.4,1.1,67,0.00,,SKC,0.00,VWS V14.01,2013-01-27 23:58:00,
2013-01-27 17:03:00,35.8,25.9,29.60,NNW,338,0.7,0.9,67,0.00,,SKC,0.00,VWS V14.01,2013-01-28 00:03:00,
2013-01-27 17:08:00,35.5,25.6,29.60,NNW,338,0.2,0.9,67,0.00,,SKC,0.00,VWS V14.01,2013-01-28 00:08:00,
2013-01-27 17:13:00,35.1,25.6,29.61,NNW,338,0.0,0.9,68,0.00,,SKC,0.00,VWS V14.01,2013-01-28 00:13:00,
2013-01-27 17:19:00,34.6,25.5,29.61,NNW,338,0.0,0.9,69,0.00,,SKC,0.00,VWS V14.01,2013-01-28 00:19:00,
2013-01-27 17:24:00,34.0,24.9,29.61,NNW,338,0.0,0.9,69,0.00,,SKC,0.00,VWS V14.01,2013-01-28 00:24:00,
2013-01-27 17:29:00,33.8,24.7,29.61,NNW,338,0.0,1.6,69,0.00,,SKC,0.00,VWS V14.01,2013-01-28 00:29:00,
2013-01-27 17:34:00,33.3,24.6,29.61,NNW,338,0.0,0.4,70,0.00,,SKC,0.00,VWS V14.01,2013-01-28 00:34:00,
2013-01-27 17:39:00,32.9,24.2,29.62,NNW,338,0.0,0.4,70,0.00,,SKC,0.00,VWS V14.01,2013-01-28 00:39:00,
2013-01-27 17:44:00,32.8,24.5,29.62,NNW,338,0.0,0.4,71,0.00,,SKC,0.00,VWS V14.01,2013-01-28 00:44:00,
2013-01-27 17:49:00,32.4,24.4,29.62,NNW,338,0.2,0.4,72,0.00,,SKC,0.00,VWS V14.01,2013-01-28 00:49:00,
2013-01-27 17:54:00,32.2,24.5,29.62,NNW,338,0.4,0.4,73,0.00,,SKC,0.00,VWS V14.01,2013-01-28 00:54:00,
2013-01-27 18:00:00,32.0,24.3,29.62,NW,315,0.4,0.4,73,0.00,,SKC,0.00,VWS V14.01,2013-01-28 01:00:00,
2013-01-27 18:05:00,31.7,24.0,29.62,NNW,338,0.7,0.7,73,0.00,,SKC,0.00,VWS V14.01,2013-01-28 01:05:00,
2013-01-27 18:10:00,31.3,23.7,29.62,NW,315,0.4,0.7,73,0.00,,SKC,0.00,VWS V14.01,2013-01-28 01:10:00,
2013-01-27 18:15:00,31.1,23.8,29.62,NW,315,0.0,0.7,74,0.00,,SKC,0.00,VWS V14.01,2013-01-28 01:15:00,
2013-01-27 18:20:00,30.8,23.5,29.62,NW,315,0.2,0.7,74,0.00,,SKC,0.00,VWS V14.01,2013-01-28 01:20:00,
2013-01-27 18:25:00,30.4,23.1,29.62,NW,315,0.7,0.7,74,0.00,,SKC,0.00,VWS V14.01,2013-01-28 01:25:00,
2013-01-27 18:30:00,30.2,23.2,29.62,NNW,338,0.7,0.7,75,0.00,,SKC,0.00,VWS V14.01,2013-01-28 01:30:00,
2013-01-27 18:36:00,30.1,23.1,29.62,NNW,338,0.0,0.7,75,0.00,,SKC,0.00,VWS V14.01,2013-01-28 01:36:00,
2013-01-27 18:41:00,29.9,23.0,29.63,NW,315,0.2,0.7,75,0.00,,SKC,0.00,VWS V14.01,2013-01-28 01:41:00,
2013-01-27 18:46:00,29.5,22.6,29.63,NW,315,0.4,0.7,75,0.00,,SKC,0.00,VWS V14.01,2013-01-28 01:46:00,
2013-01-27 18:51:00,29.2,23.2,29.63,NNW,338,0.9,0.9,78,0.00,,SKC,0.00,VWS V14.01,2013-01-28 01:51:00,
2013-01-27 18:56:00,29.2,23.2,29.63,NNW,338,0.4,0.9,78,0.00,,SKC,0.00,VWS V14.01,2013-01-28 01:56:00,
2013-01-27 19:01:00,29.0,23.0,29.63,NW,315,0.0,0.2,78,0.00,,SKC,0.00,VWS V14.01,2013-01-28 02:01:00,
2013-01-27 19:06:00,28.8,22.5,29.63,NW,315,0.4,0.4,77,0.00,,SKC,0.00,VWS V14.01,2013-01-28 02:06:00,
2013-01-27 19:12:00,28.6,22.3,29.63,NW,315,0.0,0.4,77,0.00,,SKC,0.00,VWS V14.01,2013-01-28 02:12:00,
2013-01-27 19:17:00,28.4,22.1,29.62,NNW,338,0.4,0.4,77,0.00,,SKC,0.00,VWS V14.01,2013-01-28 02:17:00,
2013-01-27 19:22:00,28.3,22.3,29.63,NNW,338,0.0,0.4,78,0.00,,SKC,0.00,VWS V14.01,2013-01-28 02:22:00,
2013-01-27 19:27:00,28.1,22.1,29.64,NW,315,0.2,0.4,78,0.00,,SKC,0.00,VWS V14.01,2013-01-28 02:27:00,
2013-01-27 19:32:00,28.1,22.7,29.63,NNW,338,0.9,0.9,80,0.00,,SKC,0.00,VWS V14.01,2013-01-28 02:32:00,
2013-01-27 19:37:00,27.9,22.8,29.63,ENE,68,0.0,0.9,81,0.00,,SKC,0.00,VWS V14.01,2013-01-28 02:37:00,
2013-01-27 19:42:00,27.9,22.5,29.63,East,90,0.2,0.9,80,0.00,,SKC,0.00,VWS V14.01,2013-01-28 02:42:00,
2013-01-27 19:48:00,27.5,22.5,29.63,NNW,338,0.4,0.9,81,0.00,,SKC,0.00,VWS V14.01,2013-01-28 02:48:00,
2013-01-27 19:53:00,27.4,22.4,29.63,NW,315,0.0,0.9,81,0.00,,SKC,0.00,VWS V14.01,2013-01-28 02:53:00,
2013-01-27 19:58:00,27.5,22.5,29.63,NW,315,0.2,0.9,81,0.00,,SKC,0.00,VWS V14.01,2013-01-28 02:58:00,
2013-01-27 20:03:00,27.4,22.4,29.63,NW,315,0.0,0.4,81,0.00,,SKC,0.00,VWS V14.01,2013-01-28 03:03:00,
2013-01-27 20:08:00,27.2,21.9,29.63,NW,315,0.0,0.4,80,0.00,,SKC,0.00,VWS V14.01,2013-01-28 03:08:00,
2013-01-27 20:13:00,27.0,21.7,29.63,NW,315,0.4,0.4,80,0.00,,SKC,0.00,VWS V14.01,2013-01-28 03:13:00,
2013-01-27 20:18:00,27.0,22.0,29.63,NW,315,0.0,0.4,81,0.00,,SKC,0.00,VWS V14.01,2013-01-28 03:18:00,
2013-01-27 20:24:00,26.8,22.0,29.63,NW,315,0.2,0.4,82,0.00,,SKC,0.00,VWS V14.01,2013-01-28 03:24:00,
2013-01-27 20:29:00,26.6,21.9,29.63,NW,315,0.0,0.4,82,0.00,,SKC,0.00,VWS V14.01,2013-01-28 03:29:00,
2013-01-27 20:34:00,26.6,21.9,29.62,NW,315,0.0,0.0,82,0.00,,SKC,0.00,VWS V14.01,2013-01-28 03:34:00,
2013-01-27 20:39:00,26.6,21.9,29.62,NW,315,0.0,0.0,82,0.00,,SKC,0.00,VWS V14.01,2013-01-28 03:39:00,
2013-01-27 20:44:00,26.5,21.8,29.62,NW,315,0.0,0.0,82,0.00,,SKC,0.00,VWS V14.01,2013-01-28 03:44:00,
2013-01-27 20:49:00,26.5,22.0,29.63,NW,315,0.0,0.0,83,0.00,,SKC,0.00,VWS V14.01,2013-01-28 03:49:00,
2013-01-27 20:54:00,26.3,21.9,29.63,NNW,338,0.2,0.2,83,0.00,,SKC,0.00,VWS V14.01,2013-01-28 03:54:00,
2013-01-27 21:00:00,26.6,22.4,29.63,NNW,338,0.0,0.0,84,0.00,,SKC,0.00,VWS V14.01,2013-01-28 04:00:00,
2013-01-27 21:05:00,26.6,22.1,29.63,East,90,0.0,0.2,83,0.00,,SKC,0.00,VWS V14.01,2013-01-28 04:05:00,
2013-01-27 21:10:00,26.6,22.4,29.63,NNW,338,0.4,0.4,84,0.00,,SKC,0.00,VWS V14.01,2013-01-28 04:10:00,
2013-01-27 21:15:00,26.3,22.1,29.63,NNW,338,0.0,0.4,84,0.00,,SKC,0.00,VWS V14.01,2013-01-28 04:15:00,
2013-01-27 21:20:00,26.3,22.1,29.63,NNW,338,0.0,0.4,84,0.00,,SKC,0.00,VWS V14.01,2013-01-28 04:20:00,
2013-01-27 21:25:00,26.3,22.1,29.63,NNW,338,0.0,0.4,84,0.00,,SKC,0.00,VWS V14.01,2013-01-28 04:25:00,
2013-01-27 21:30:00,26.1,21.9,29.63,NNW,338,0.0,0.0,84,0.00,,SKC,0.00,VWS V14.01,2013-01-28 04:30:00,
2013-01-27 21:35:00,26.1,21.9,29.63,NNW,338,0.4,0.4,84,0.00,,SKC,0.00,VWS V14.01,2013-01-28 04:35:00,
2013-01-27 21:40:00,26.3,22.1,29.63,NNW,338,0.0,0.4,84,0.00,,SKC,0.00,VWS V14.01,2013-01-28 04:40:00,
2013-01-27 21:46:00,26.1,21.9,29.63,NNW,338,0.2,0.4,84,0.00,,SKC,0.00,VWS V14.01,2013-01-28 04:46:00,
2013-01-27 21:51:00,25.9,21.7,29.64,NW,315,0.4,0.9,84,0.00,,SKC,0.00,VWS V14.01,2013-01-28 04:51:00,
2013-01-27 21:56:00,25.7,21.5,29.63,NW,315,0.0,0.9,84,0.00,,SKC,0.00,VWS V14.01,2013-01-28 04:56:00,
2013-01-27 22:00:00,25.9,21.7,29.64,NW,315,0.0,0.9,84,0.00,,SKC,0.00,VWS V14.01,2013-01-28 05:00:00,
2013-01-27 22:02:00,25.9,21.7,29.64,NW,315,0.0,0.0,84,0.00,,SKC,0.00,VWS V14.01,2013-01-28 05:02:00,
2013-01-27 22:03:00,25.7,21.5,29.64,NW,315,0.0,0.0,84,0.00,,SKC,0.00,VWS V14.01,2013-01-28 05:03:00,
2013-01-27 22:08:00,25.4,21.5,29.64,North,0,0.0,0.2,85,0.00,,SKC,0.00,VWS V14.01,2013-01-28 05:08:00,
2013-01-27 22:13:00,25.2,21.3,29.64,NE,45,0.9,0.9,85,0.00,,SKC,0.00,VWS V14.01,2013-01-28 05:13:00,
2013-01-27 22:18:00,25.2,21.3,29.64,East,90,0.0,0.9,85,0.00,,SKC,0.00,VWS V14.01,2013-01-28 05:18:00,
2013-01-27 22:23:00,25.2,21.3,29.64,NNW,338,0.0,0.9,85,0.00,,SKC,0.00,VWS V14.01,2013-01-28 05:23:00,
2013-01-27 22:29:00,25.0,21.1,29.64,NNW,338,0.0,0.9,85,0.00,,SKC,0.00,VWS V14.01,2013-01-28 05:29:00,
2013-01-27 22:34:00,24.8,20.9,29.64,NW,315,0.2,0.2,85,0.00,,SKC,0.00,VWS V14.01,2013-01-28 05:34:00,
2013-01-27 22:39:00,24.8,21.2,29.64,NW,315,0.4,0.4,86,0.00,,SKC,0.00,VWS V14.01,2013-01-28 05:39:00,
2013-01-27 22:44:00,25.0,21.4,29.64,NW,315,0.2,0.4,86,0.00,,SKC,0.00,VWS V14.01,2013-01-28 05:44:00,
2013-01-27 22:49:00,25.0,21.4,29.64,NW,315,0.0,0.4,86,0.00,,SKC,0.00,VWS V14.01,2013-01-28 05:49:00,
2013-01-27 22:54:00,24.8,21.2,29.64,NW,315,0.0,0.4,86,0.00,,SKC,0.00,VWS V14.01,2013-01-28 05:54:00,
2013-01-27 23:00:00,24.8,21.2,29.64,WNW,292,1.1,1.1,86,0.00,,SKC,0.00,VWS V14.01,2013-01-28 06:00:00,
2013-01-27 23:04:00,24.7,21.4,29.64,NNW,338,0.4,0.4,87,0.00,,SKC,0.00,VWS V14.01,2013-01-28 06:04:00,
2013-01-27 23:10:00,24.7,21.1,29.64,NNW,338,0.0,0.4,86,0.00,,SKC,0.00,VWS V14.01,2013-01-28 06:10:00,
2013-01-27 23:15:00,24.7,21.1,29.64,NNW,338,0.0,0.4,86,0.00,,SKC,0.00,VWS V14.01,2013-01-28 06:15:00,
2013-01-27 23:20:00,24.5,20.9,29.64,NNW,338,0.0,0.4,86,0.00,,SKC,0.00,VWS V14.01,2013-01-28 06:20:00,
2013-01-27 23:25:00,24.3,21.0,29.64,NW,315,0.7,0.7,87,0.00,,SKC,0.00,VWS V14.01,2013-01-28 06:25:00,
2013-01-27 23:30:00,24.1,20.8,29.64,NW,315,0.0,0.0,87,0.00,,SKC,0.00,VWS V14.01,2013-01-28 06:30:00,
2013-01-27 23:35:00,24.1,20.8,29.64,NW,315,0.2,0.2,87,0.00,,SKC,0.00,VWS V14.01,2013-01-28 06:35:00,
2013-01-27 23:41:00,24.1,20.8,29.65,NW,315,0.2,0.4,87,0.00,,SKC,0.00,VWS V14.01,2013-01-28 06:41:00,
2013-01-27 23:46:00,24.3,21.0,29.65,NW,315,0.0,0.4,87,0.00,,SKC,0.00,VWS V14.01,2013-01-28 06:46:00,
2013-01-27 23:51:00,24.5,21.2,29.65,NW,315,0.0,0.4,87,0.00,,SKC,0.00,VWS V14.01,2013-01-28 06:51:00,
2013-01-27 23:56:00,24.7,21.4,29.65,WNW,292,0.0,0.4,87,0.00,,SKC,0.00,VWS V14.01,2013-01-28 06:56:00,